This is the latest recevied weather packets stored in our database for station/object IU5JAE-13. If no packets are shown the sender has not sent any weather packets the latest 10 day(s).
| Time | Temp. | Humidity | Pressure | Rain* | Wind** | Luminosity | Snow |
|---|---|---|---|---|---|---|---|
| 1778016923 | 13.89° C | 99% | 1012.2 hPa | 5.33 mm | - | 0 W/m² | - |
| 1778016321 | 13.89° C | 99% | 1012.6 hPa | 4.06 mm | - | 0 W/m² | - |
| 1778015719 | 13.89° C | 99% | 1012.6 hPa | 3.05 mm | - | 0 W/m² | - |
| 1778015116 | 13.89° C | 99% | 1012.4 hPa | 1.52 mm | - | 0 W/m² | - |
| 1778014534 | 13.89° C | 99% | 1012.6 hPa | 1.02 mm | - | 0 W/m² | - |
| 1778013932 | 14.44° C | 99% | 1012.7 hPa | 0.25 mm | - | 0 W/m² | - |
| 1778013330 | 13.89° C | 98% | 1012.9 hPa | 0.51 mm | - | 0 W/m² | - |
| 1778012727 | 14.44° C | 98% | 1012.7 hPa | 0.51 mm | - | 0 W/m² | - |
| 1778012124 | 14.44° C | 98% | 1012.7 hPa | 0.76 mm | - | 0 W/m² | - |
| 1778011522 | 14.44° C | 98% | 1012.8 hPa | 1.02 mm | - | 0 W/m² | - |
| 1778010919 | 14.44° C | 98% | 1013 hPa | 1.02 mm | - | 0 W/m² | - |
| 1778010317 | 14.44° C | 98% | 1013 hPa | 1.02 mm | - | 0 W/m² | - |
| 1778009735 | 14.44° C | 98% | 1012.7 hPa | 0.76 mm | - | 0 W/m² | - |
| 1778009132 | 14.44° C | 98% | 1012.5 hPa | 0.76 mm | - | 0 W/m² | - |
| 1778008530 | 14.44° C | 97% | 1012.6 hPa | 0.51 mm | - | 0 W/m² | - |
| 1778007928 | 14.44° C | 97% | 1012.6 hPa | 0 mm | - | 0 W/m² | - |
| 1778007325 | 13.89° C | 97% | 1012.5 hPa | 0 mm | - | 0 W/m² | - |
| 1778006723 | 14.44° C | 96% | 1012.5 hPa | 0 mm | - | 0 W/m² | - |
| 1778006120 | 14.44° C | 96% | 1012.5 hPa | 0 mm | - | 1 W/m² | - |
| 1778005518 | 14.44° C | 96% | 1012.5 hPa | 0 mm | - | 3 W/m² | - |
| 1778004915 | 14.44° C | 96% | 1012.4 hPa | 0 mm | - | 6 W/m² | - |
| 1778004333 | 14.44° C | 97% | 1012.5 hPa | 0 mm | - | 5 W/m² | - |
| 1778003731 | 14.44° C | 96% | 1012.4 hPa | 0 mm | - | 6 W/m² | - |
| 1778003128 | 15° C | 96% | 1012.5 hPa | 0 mm | - | 14 W/m² | - |
| 1778002526 | 15° C | 96% | 1012.5 hPa | 0 mm | - | 19 W/m² | - |
* Rain latest hour (hover to see other rain measurements)
** Current wind speed in m/s (hover to see current wind gust speed)